Weather History for Lake Hood, AK

Change the Weather History Date:

Friday, October 7, 2011

  Actual Average Record
Temperature  
Mean Temperature 46 °F -  
Max Temperature 48 °F 43 °F 55 °F (2006)
Min Temperature 43 °F 32 °F 24 °F (1996)
Degree Days  
Heating Degree Days 20    
Moisture  
Dew Point 40 °F    
Average Humidity 81    
Maximum Humidity 89    
Minimum Humidity 71    
Precipitation  
Precipitation 0.00 in - - ()
Sea Level Pressure  
Sea Level Pressure 29.66 in    
Wind  
Wind Speed 1 mph (North)    
Max Wind Speed 6 mph    
Max Gust Speed -    
Visibility 10 miles    
Events Rain    
Averages and records for this station are not official NWS values.
T = Trace of Precipitation, MM = Missing Value Source: NWS Daily Summary

Daily Weather History Graph

Daily Weather History Graph

Search for Another Location

Airport:

Trip Planner

Search our weather history database for the weather conditions in past years. The results will help you decide how hot, cold, wet, or windy it might be!

Date:

Astronomy

Oct. 07, 2011 Rise Set
Actual Time 8:21 AM AKDT 7:12 PM AKDT
Civil Twilight 7:38 AM AKDT 7:55 PM AKDT
Nautical Twilight 6:48 AM AKDT 8:45 PM AKDT
Astronomical Twilight 5:55 AM AKDT 9:37 PM AKDT
Moon 5:48 PM AKDT (10/7) 3:20 AM AKDT (10/7)
Length of Visible Light 12h 17m
Length of Day
10h 51m
Waxing Gibbous, 84% of the Moon is Illuminated
Oct 7
Waxing Gibbous
Oct 11
Full
Oct 19
Last Quarter
Oct 26
New
Nov 2
First Quarter

Hourly Weather History & Observations

Time (AKDT) Temp. Windchill Dew Point Humidity Pressure Visibility Wind Dir Wind Speed Gust Speed Precip Events Conditions
12:53 AM 44.1 °F - 39.9 °F 85% 29.55 in 10.0 mi Calm Calm - N/A   Overcast
1:22 AM 44.6 °F 43.1 °F 39.2 °F 81% 29.55 in 10.0 mi NNW 3.5 mph - N/A   Overcast
1:53 AM 44.1 °F - 39.9 °F 85% 29.57 in 10.0 mi Calm Calm - N/A   Overcast
2:07 AM 44.6 °F 43.1 °F 39.2 °F 81% 29.57 in 10.0 mi NNW 3.5 mph - N/A   Overcast
2:33 AM 44.6 °F - 39.2 °F 81% 29.58 in 10.0 mi Calm Calm - N/A   Overcast
2:53 AM 44.1 °F - 39.9 °F 85% 29.58 in 10.0 mi Calm Calm - N/A   Overcast
3:30 AM 44.6 °F - 39.2 °F 81% 29.59 in 10.0 mi Calm Calm - N/A   Overcast
3:38 AM 44.6 °F - 39.2 °F 81% 29.59 in 10.0 mi Calm Calm - N/A   Overcast
3:53 AM 44.1 °F - 39.9 °F 85% 29.60 in 10.0 mi Calm Calm - N/A   Overcast
4:29 AM 44.6 °F - 39.2 °F 81% 29.60 in 10.0 mi Calm Calm - N/A   Overcast
4:53 AM 44.1 °F - 39.9 °F 85% 29.61 in 10.0 mi Calm Calm - N/A   Overcast
5:06 AM 44.6 °F - 39.2 °F 81% 29.61 in 10.0 mi Calm Calm - N/A   Overcast
5:18 AM 44.6 °F - 39.2 °F 81% 29.61 in 10.0 mi Calm Calm - N/A   Overcast
5:53 AM 44.1 °F - 39.9 °F 85% 29.62 in 10.0 mi Calm Calm - N/A   Overcast
6:00 AM 44.6 °F - 39.2 °F 81% 29.62 in 10.0 mi Calm Calm - N/A   Overcast
6:19 AM 44.6 °F - 39.2 °F 81% 29.62 in 10.0 mi Calm Calm - N/A   Overcast
6:50 AM 44.6 °F - 39.2 °F 81% 29.63 in 10.0 mi Calm Calm - N/A   Overcast
6:53 AM 44.1 °F - 39.9 °F 85% 29.63 in 10.0 mi Calm Calm - N/A   Overcast
7:53 AM 43.0 °F - 39.9 °F 89% 29.65 in 10.0 mi Calm Calm - N/A   Overcast
8:53 AM 43.0 °F - 39.9 °F 89% 29.67 in 6.0 mi Calm Calm - N/A   Overcast
9:53 AM 45.0 °F - 41.0 °F 86% 29.68 in 5.0 mi Calm Calm - 0.00 in Rain Light Rain
10:23 AM 44.6 °F - 39.2 °F 81% 29.68 in 8.0 mi Calm Calm - 0.00 in   Overcast
10:53 AM 46.0 °F - 41.0 °F 83% 29.69 in 10.0 mi Calm Calm - 0.00 in   Overcast
11:53 AM 46.9 °F - 39.9 °F 77% 29.70 in 10.0 mi Calm Calm - N/A   Overcast
12:53 PM 48.0 °F - 41.0 °F 77% 29.72 in 10.0 mi Calm Calm - N/A   Overcast
1:18 PM 48.2 °F - 41.0 °F 76% 29.72 in 10.0 mi Calm Calm - N/A   Overcast
1:27 PM 48.2 °F - 41.0 °F 76% 29.72 in 10.0 mi North 3.5 mph - N/A   Overcast
1:36 PM 48.2 °F - 41.0 °F 76% 29.72 in 10.0 mi North 3.5 mph - N/A   Overcast
1:53 PM 48.0 °F - 41.0 °F 77% 29.73 in 10.0 mi NNE 3.5 mph - N/A   Overcast
2:53 PM 48.9 °F - 41.0 °F 74% 29.73 in 10.0 mi Calm Calm - N/A   Overcast
3:53 PM 48.9 °F - 41.0 °F 74% 29.73 in 10.0 mi North 3.5 mph - N/A   Overcast
4:53 PM 48.9 °F - 39.9 °F 71% 29.73 in 10.0 mi NNE 4.6 mph - N/A   Overcast
5:53 PM 48.0 °F - 41.0 °F 77% 29.74 in 10.0 mi NNE 5.8 mph - N/A   Overcast
6:53 PM 48.0 °F - 41.0 °F 77% 29.74 in 10.0 mi NE 3.5 mph - N/A   Overcast
7:53 PM 46.9 °F - 39.9 °F 77% 29.75 in 10.0 mi Calm Calm - N/A   Overcast
8:53 PM 46.0 °F - 41.0 °F 83% 29.75 in 10.0 mi Calm Calm - N/A   Overcast
9:53 PM 46.0 °F - 41.0 °F 83% 29.76 in 10.0 mi Calm Calm - N/A   Overcast
10:53 PM 45.0 °F - 41.0 °F 86% 29.76 in 10.0 mi Calm Calm - N/A   Overcast
11:53 PM 45.0 °F - 39.9 °F 82% 29.77 in 10.0 mi Calm Calm - N/A   Overcast